Location: Hiekkapohja
(62.3333°N, 25.7833°E)
Time: 00:23:21
(UTC+00:00)

SL-16 R/B - Pass Details

Date: 07 August 2020
Orbit: 840 x 849 km, 71.0° (Epoch: 20 September)

Event Time Altitude Azimuth Distance (km) Brightness Sun altitude
Rises 00:13:03 0° 318° (NW) 3,427 5.7 -8.4°
Reaches altitude 10° 00:15:33 10° 314° (NW) 2,488 4.9 -8.2°
Maximum altitude 00:21:03 51° 240° (WSW) 1,067 2.4 -7.9°
Drops below altitude 10° 00:26:31 10° 166° (SSE) 2,474 4.2 -7.6°
Sets 00:29:01 0° 162° (SSE) 3,405 5.0 -7.5°
